[[{"header":{"parameterUnit":"m.s-1","parameterCategory":1,"la1":30.2991,"la2":30.254,"lo1":-89.0895,"lo2":-89.0444,"dy":0.0017,"dx":0.0017,"nx":28,"ny":28,"refTime":"2024-04-10T03:00:00:Z","depth":0,"parameterNumber":2,"parameterNumberName":"U-component_of_WINDS"},"data":[0,0,0,0,0,0,0,0,0,0,0,0,0,0,0,0,0,0,0,0,0,0,0,0,0,0,0,0,0,0,0,0,0,0,0,0,0,0,0,0,0,0,0,0,0,0,0,0,0,0,0,0,0,0,0,0,0,0,5.4658,5.466,0,5.4773,5.4775,5.4776,5.466,5.4656,5.4651,5.4647,5.4774,5.4781,5.4789,0,0,0,0,0,0,0,0,0,0,0,0,0,5.4346,5.4353,5.4658,5.466,5.4661,5.4773,5.4775,5.4776,5.4661,5.4656,5.465,5.4645,5.4771,5.478,5.4789,0,0,0,0,0,0,0,0,0,0,0,0,0,5.4474,5.4355,5.4658,5.4617,5.4614,5.4773,5.4775,5.4777,5.4662,5.4655,5.4649,5.4642,5.4768,5.4779,5.4791,5.4998,0,0,5.4826,5.4831,0,0,0,0,0,0,0,0,5.4467,5.4486,5.4622,5.462,5.4617,5.4695,5.4711,5.4851,5.4664,5.4644,5.4647,5.4639,5.4754,5.4766,5.4803,5.5004,5.5009,5.4827,5.4834,5.4838,5.4842,0,0,0,0,0,0,0,5.4458,5.448,5.4704,5.4624,5.4621,5.4595,5.4606,5.4737,5.4736,5.4646,5.4637,5.4652,5.4751,5.4792,5.4805,5.5011,5.4826,5.4836,5.4843,5.4848,5.5387,5.5394,0,0,0,0,0,0,5.4453,5.4473,5.47,5.4707,5.4523,5.4606,5.4618,5.4677,5.4734,5.4736,5.4658,5.4646,5.4776,5.4792,5.4809,5.5054,5.4838,5.4849,5.4856,5.538,5.5389,5.5397,0,0,0,0,0,0,5.4446,5.4474,5.4696,5.4588,5.4614,5.4619,5.4687,5.4683,5.4724,5.4744,5.4744,5.4699,5.4771,5.4793,5.4951,5.5057,5.4854,5.4865,5.5371,5.5382,5.5393,5.5547,0,0,0,0,0,0,5.4438,5.4472,5.455,5.4591,5.4621,5.4834,5.4693,5.469,5.4743,5.4729,5.4782,5.4785,5.4767,5.4934,5.4962,5.5069,5.4874,5.5361,5.5376,5.5389,5.5533,5.5562,5.5588,0,0,0,0,0,5.4427,5.4591,5.4554,5.4582,5.4717,5.484,5.4858,5.4832,5.4752,5.483,5.4843,5.4783,5.5041,5.4952,5.4982,5.5094,5.5355,5.5372,5.5388,5.552,5.5556,5.5587,0,0,0,0,0,0,5.4566,5.4596,5.4555,5.4737,5.4786,5.482,5.4919,5.4871,5.4947,5.4931,5.4899,5.4912,5.5079,5.5102,5.5002,5.5297,5.5185,5.5209,5.5275,5.531,5.5337,5.5327,5.4883,0,0,0,0,0,5.4617,5.4713,5.4734,5.4893,5.4919,5.4915,5.4968,5.4943,5.4995,5.5016,5.504,5.5095,5.5188,5.525,5.5337,5.5535,5.5545,5.5627,5.5655,5.5677,5.5698,5.5804,5.584,5.5452,5.5452,5.5451,0,0,5.4726,5.4753,5.4816,5.4921,5.4957,5.5058,5.4934,5.5047,5.5122,5.5034,5.5183,5.5204,5.5262,5.5441,5.5521,5.5466,5.5808,5.5699,5.5716,5.5725,5.5825,5.5861,5.5894,5.5463,5.5461,5.5459,0,0,5.4973,5.5004,5.5138,5.5175,5.5229,5.5225,5.5258,5.5299,5.5307,5.5456,5.5391,5.5482,5.5643,5.5687,5.5731,5.5993,5.5941,5.6023,5.6167,5.627,5.63,5.6327,5.642,5.6454,5.6044,5.6044,5.6044,0,5.5101,5.5248,5.5214,5.533,5.5379,5.53,5.5437,5.5476,5.5557,5.5593,5.5529,5.5728,5.5763,5.595,5.6013,5.6052,5.6088,5.6017,5.6298,5.6325,5.635,5.6438,5.6473,5.6054,5.6053,5.6052,5.6051,0,5.5403,5.5506,5.5608,5.5684,5.5744,5.5871,5.5857,5.5922,5.5892,5.5896,5.6048,5.6086,5.6178,5.6221,5.6195,5.6405,5.6368,5.6302,5.6189,5.6397,5.6479,5.6513,5.6067,5.6064,5.6061,5.6059,0,0,5.5743,5.5796,5.5834,5.5867,5.592,5.6,5.6123,5.621,5.6266,5.6325,5.6428,5.6565,5.6503,5.6553,5.6531,5.6621,5.6825,5.6544,5.6545,5.6594,5.7058,5.7107,5.7146,5.6791,5.6797,5.6802,5.7053,0,5.5991,5.62,5.6172,5.6374,5.6469,5.6395,5.6503,5.6548,5.6554,5.6637,5.6645,5.6742,5.6654,5.6683,5.6769,5.6782,5.6918,5.6764,5.6888,5.6892,5.6874,5.7189,5.7242,5.7476,5.7085,5.709,5.7094,0,5.6309,5.6374,5.6585,5.6621,5.666,5.6757,5.6833,5.6913,5.6963,5.6961,5.7015,5.6976,5.7101,5.6986,5.7158,5.7053,5.7102,5.7116,5.7125,5.7135,5.7005,5.7208,5.755,5.7585,5.7145,5.7141,5.7137,0,5.6534,5.6676,5.6819,5.685,5.6896,5.6966,5.6989,5.7032,5.7085,5.7153,5.7187,5.7271,5.7317,5.7383,5.7368,5.7285,5.7543,5.7427,5.7546,5.7547,5.7604,5.76,5.7958,5.7637,5.7636,5.7636,5.7635,0,5.6813,5.6945,5.692,5.7009,5.7154,5.7122,5.7267,5.7282,5.732,5.7412,5.7355,5.7442,5.7417,5.7504,5.7494,5.7637,5.7659,5.7662,5.7657,5.7667,5.7666,5.7698,5.7681,5.7645,5.7643,5.7641,5.764,0,5.709,5.7078,5.723,5.726,5.7271,5.7377,5.7403,5.7488,5.7488,5.7604,5.763,5.7632,5.7732,5.7723,5.7836,5.7829,5.8006,5.7983,5.7988,5.7982,5.8101,5.809,5.8492,5.8543,5.819,5.8193,5.8196,0,5.7268,5.7367,5.7407,5.7462,5.7489,5.7579,5.7632,5.7604,5.7662,5.7726,5.7802,5.7895,5.7968,5.8131,5.8144,5.823,5.8208,5.8343,5.822,5.8226,5.8208,5.8202,5.8211,5.8367,5.8371,5.8374,5.8377,0,5.7587,5.7575,5.7652,5.7727,5.7791,5.785,5.7903,5.7953,5.793,5.7998,5.8097,5.8153,5.8266,5.8359,5.844,5.8466,5.8419,5.8415,5.8447,5.8457,5.8455,5.8456,5.8052,5.8406,5.8403,5.8401,5.8399,5.8398,5.7819,5.7902,5.7942,5.803,5.8066,5.8116,5.8196,5.8205,5.8285,5.8372,5.8352,5.8463,5.851,5.8613,5.8647,5.8735,5.8687,5.8734,5.8745,5.8757,5.877,5.8441,5.875,5.8749,5.8749,5.8748,5.8747,0,5.8133,5.8154,5.8235,5.8309,5.8378,5.8323,5.8379,5.8441,5.8538,5.8584,5.8656,5.8769,5.8859,5.8878,5.8965,5.9031,5.9011,5.9055,5.9049,5.9056,5.8809,5.8772,5.9069,5.9069,5.9069,5.9069,5.9069,5.9069,5.8304,5.8442,5.8436,5.8591,5.8612,5.8717,5.8754,5.88,5.8837,5.8964,5.9037,5.9048,5.9084,5.9172,5.9252,5.9255,5.929,5.9342,5.9337,5.9106,5.9074,5.9043,5.9008,5.935,5.935,5.9576,5.9578,5.958]},{"header":{"parameterUnit":"m.s-1","parameterCategory":1,"la1":30.2991,"la2":30.254,"lo1":-89.0895,"lo2":-89.0444,"dy":0.0017,"dx":0.0017,"nx":28,"ny":28,"refTime":"2024-04-10T03:00:00:Z","depth":0,"parameterNumber":3,"parameterNumberName":"V-component_of_WINDS"},"data":[0,0,0,0,0,0,0,0,0,0,0,0,0,0,0,0,0,0,0,0,0,0,0,0,0,0,0,0,0,0,0,0,0,0,0,0,0,0,0,0,0,0,0,0,0,0,0,0,0,0,0,0,0,0,0,0,0,0,1.3499,1.3499,0,1.35,1.35,1.35,1.3455,1.3454,1.3453,1.3452,1.3454,1.3455,1.3456,0,0,0,0,0,0,0,0,0,0,0,0,0,1.3459,1.346,1.3499,1.3499,1.3499,1.35,1.35,1.35,1.3456,1.3454,1.3453,1.3451,1.3453,1.3455,1.3456,0,0,0,0,0,0,0,0,0,0,0,0,0,1.347,1.3461,1.3499,1.3477,1.3475,1.35,1.35,1.35,1.3456,1.3454,1.3452,1.3451,1.3453,1.3454,1.3456,1.3502,0,0,1.3461,1.3462,0,0,0,0,0,0,0,0,1.347,1.3472,1.348,1.3478,1.3476,1.3476,1.3487,1.3501,1.3456,1.3463,1.3452,1.345,1.3462,1.3463,1.3467,1.3502,1.3502,1.3462,1.3463,1.3463,1.3464,0,0,0,0,0,0,0,1.3469,1.3471,1.3499,1.348,1.3478,1.3467,1.3467,1.3489,1.3473,1.3462,1.3459,1.346,1.3461,1.3466,1.3467,1.3503,1.3462,1.3463,1.3464,1.3465,1.3576,1.3578,0,0,0,0,0,0,1.3471,1.3471,1.3499,1.3499,1.3469,1.3469,1.3469,1.3478,1.3472,1.347,1.3461,1.3458,1.3464,1.3465,1.3467,1.3521,1.3463,1.3465,1.3466,1.3574,1.3577,1.3579,0,0,0,0,0,0,1.347,1.3474,1.3499,1.3484,1.3487,1.3472,1.3482,1.3479,1.3483,1.3472,1.3469,1.3469,1.3462,1.3465,1.3494,1.3521,1.3466,1.3467,1.3572,1.3575,1.3578,1.363,0,0,0,0,0,0,1.3469,1.3474,1.3491,1.3485,1.3488,1.3526,1.3484,1.348,1.3486,1.3482,1.3478,1.3476,1.3461,1.3492,1.3496,1.3522,1.3469,1.357,1.3573,1.3577,1.3626,1.3635,1.3642,0,0,0,0,0,1.3468,1.3506,1.3492,1.3496,1.3509,1.3528,1.3529,1.3511,1.3489,1.3506,1.3499,1.3476,1.3517,1.3495,1.3499,1.3527,1.3568,1.3572,1.3576,1.3622,1.3633,1.3642,0,0,0,0,0,0,1.3516,1.3505,1.349,1.3526,1.3528,1.352,1.3542,1.3523,1.3532,1.3527,1.3504,1.3504,1.3537,1.3535,1.351,1.3571,1.3538,1.3544,1.3572,1.3582,1.3589,1.359,1.347,0,0,0,0,0,1.3531,1.3547,1.3536,1.357,1.3571,1.3557,1.3564,1.355,1.3551,1.3552,1.3547,1.3549,1.3562,1.3572,1.3583,1.3625,1.3624,1.3646,1.3654,1.366,1.3666,1.3688,1.3698,1.3593,1.3593,1.3593,0,0,1.3561,1.3557,1.3569,1.3579,1.3579,1.3597,1.3558,1.3578,1.3591,1.3555,1.3583,1.3579,1.358,1.3616,1.3632,1.3615,1.3694,1.3666,1.3671,1.3673,1.3694,1.3704,1.3713,1.3596,1.3595,1.3595,0,0,1.3626,1.3625,1.3653,1.3654,1.3654,1.3644,1.3651,1.3645,1.3642,1.3669,1.3643,1.3658,1.3681,1.3683,1.3688,1.3754,1.3734,1.3758,1.38,1.3822,1.383,1.3838,1.3862,1.3871,1.3763,1.3763,1.3764,0,1.3665,1.369,1.367,1.3692,1.3697,1.3666,1.3695,1.3696,1.3701,1.3705,1.3686,1.3716,1.3714,1.375,1.3767,1.3771,1.3778,1.3759,1.3831,1.3838,1.3844,1.3868,1.3877,1.3766,1.3766,1.3766,1.3766,0,1.3737,1.3755,1.3778,1.3783,1.3791,1.3816,1.38,1.3811,1.3796,1.3788,1.3817,1.3814,1.3825,1.3832,1.3818,1.3867,1.3857,1.3835,1.3801,1.3858,1.3879,1.3888,1.3771,1.377,1.3769,1.3768,0,0,1.3833,1.3826,1.3835,1.3837,1.3836,1.3849,1.3873,1.3884,1.3894,1.3898,1.3918,1.3938,1.3918,1.3923,1.3909,1.3928,1.3982,1.3904,1.3904,1.3919,1.4037,1.4054,1.4065,1.3968,1.397,1.3971,1.4037,0,1.3897,1.3937,1.392,1.3962,1.3979,1.395,1.3971,1.3972,1.3965,1.3979,1.3971,1.3987,1.3958,1.3961,1.3979,1.3972,1.4006,1.3967,1.3988,1.3988,1.3989,1.4076,1.4094,1.4156,1.4045,1.4047,1.4048,0,1.3977,1.3984,1.4029,1.4024,1.4031,1.405,1.4059,1.4072,1.4073,1.4066,1.4072,1.4054,1.4077,1.4043,1.4076,1.405,1.4057,1.4055,1.4057,1.4059,1.4022,1.4081,1.4175,1.4185,1.406,1.4059,1.4058,0,1.4043,1.4064,1.4094,1.4096,1.4092,1.4106,1.4105,1.4104,1.4112,1.412,1.4124,1.4135,1.414,1.4149,1.4134,1.411,1.4169,1.4134,1.4165,1.4165,1.4179,1.4179,1.4277,1.4183,1.4183,1.4182,1.4182,0,1.4117,1.4145,1.4123,1.4142,1.4173,1.4153,1.4184,1.418,1.418,1.4197,1.4171,1.4188,1.4167,1.4182,1.417,1.4199,1.4202,1.4198,1.4194,1.42,1.4201,1.4206,1.4201,1.4185,1.4184,1.4184,1.4183,0,1.4196,1.4183,1.4213,1.4206,1.4205,1.4229,1.4223,1.424,1.4232,1.4254,1.4258,1.4244,1.4261,1.4246,1.4261,1.4253,1.4293,1.4283,1.4293,1.429,1.4323,1.432,1.4428,1.4441,1.4338,1.4339,1.434,0,1.4244,1.4266,1.4262,1.4271,1.4272,1.4288,1.4295,1.4276,1.4286,1.4289,1.4305,1.4319,1.4329,1.4357,1.4348,1.436,1.4351,1.4388,1.4352,1.4358,1.4352,1.4352,1.4354,1.4395,1.4397,1.4398,1.4398,0,1.4332,1.4324,1.4336,1.4346,1.4356,1.4363,1.4368,1.4378,1.4358,1.437,1.4386,1.4394,1.441,1.4424,1.4434,1.4432,1.4413,1.441,1.4418,1.4424,1.4429,1.4428,1.4313,1.4407,1.4406,1.4406,1.4405,1.4405,1.4397,1.4415,1.4416,1.443,1.4432,1.4437,1.4453,1.4447,1.446,1.4471,1.4459,1.4479,1.448,1.449,1.4492,1.4507,1.4492,1.4503,1.4506,1.451,1.4515,1.4426,1.4509,1.4509,1.4508,1.4508,1.4508,0,1.4484,1.4483,1.4497,1.4505,1.4516,1.4496,1.4501,1.4512,1.453,1.4533,1.4543,1.4562,1.4576,1.4569,1.4581,1.4595,1.4587,1.4599,1.4598,1.4599,1.4527,1.452,1.4606,1.4606,1.4606,1.4606,1.4606,1.4606,1.4531,1.456,1.4553,1.4583,1.4581,1.4601,1.4606,1.4611,1.4613,1.4635,1.4647,1.4642,1.4641,1.4653,1.4665,1.4662,1.4669,1.4685,1.4679,1.4613,1.4604,1.4594,1.4587,1.4686,1.4686,1.4749,1.475,1.475]}]]